Kezdőlap
METAR-TAF:

METAR-TAF

Repülőterek :

Benson, Minnesota, Amerikai Egyesült Államok

földrajzi szélesség: 45-19N, földrajzi hosszúság: 095-39W, magasság: 317 m

Jelenlegi meteorológiai megfigyelések

A jelentés 18 perccel ezelõtt készült, 20:55 UTC
Kelet-délkeleti szél 9 kt széllökések: 17 kt
Hőmérséklet 9°C
Páratartalom 40%
Légköri nyomás 1012 hPa
Látótávolság: 16.1 km
Derült ég

METAR: KBBB 292055Z AUTO 12009G17KT 10SM CLR 09/M04 A2987 RMK AO2

Idő: 15:13 (21:13 UTC)


TAF: hiányzik

Meteorológiai megfigyelések és előrejelzések több, mint 4000 repülőtéren (METAR és TAF jelentéseket).

A térképen piros és sárga pontok jelzik az elérhető meteorológiai állomásokat.

Mozgassa az egeret a pont fölött, hogy megjelenjen az állomás neve.

Azután kattintson az időjárási megfigyelések és előrejelzések megtekintéséhez.

A térkép megváltoztatása: kattintson a fekete keresztel jelölt zöld gombra ráközelítéshez, a vonallal jelölt zöld gombra távolításhoz, vagy a zöld nyilakra a szomszédos térképek eléréséhez.


METAR-TAF: